User: anonymous   Login
Location: Unspecified
(0.0000°N, 0.0000°E)
Time: 23:54:31
(UTC+02:00)
Language:

Cosmos 1733 Rocket - Orbit

View from above orbital plane
View from above orbital plane
View from above satellite
View from above satellite

Ground track
Ground track

The orbit data is extracted from the following two-line orbital elements,

1 16612U 86018B   16237.90584095  .00000106  00000-0  98127-5 0  9997
2 16612  82.5157 214.3893 0019031  54.1001 328.5564 14.84097067547512
Epoch (UTC): 24 August 2016 21:44:24
Eccentricity: 0.0019031
inclination: 82.5157°
perigee height: 603 km
apogee height: 630 km
right ascension of ascending node: 214.3893°
argument of perigee: 54.1001°
revolutions per day: 14.84097067
mean anomaly at epoch: 328.5564°
orbit number at epoch: 54751

The dashed part of the orbit path shows where the satellite is in the earth's shadow,  

DLR